Powrót do katalogu

STARLINK-32492

AktywnyŁącznośćVLEO
NORAD 62050·PAYLOAD·🇺🇸 United States

Wystrzelony Nov 21, 2024 z Cape Canaveral Space Force Station

Loading…

Następne Przeloty (najbliższe 24 godziny)

TLE

ŚwieżeSource: CelesTrak SupGP

Epoka: Sep 15, 2026, 02:39 UTC

1 62050C 24216U   26258.11090278 -.00002987  00000+0 -10820-3 0  2588
2 62050  43.0027 273.5313 0001749 273.2124 125.7962 15.27572070    16

Śledź STARLINK-32492 w czasie rzeczywistym z AllMySat

Download on the App Store